KG4QWI Weather Reports


Display with metric or nautical units.
time (UTC)temp
F
wind
direction
speed
MPH
gust
MPH
rain 1hr
in
rain 24hr
in
rain mn
in
humidity
%
barometer
mb
20260508225039 72 224 0.0 3.0 0.00 0.00 0.00 34 1013.2
20260508224553 72 0 0.0 4.0 0.00 0.00 0.00 33 1013.3
20260508224039 73 237 0.0 4.0 0.00 0.00 0.00 32 1013.3
20260508223538 73 0 1.0 4.0 0.00 0.00 0.00 31 1013.4
20260508223047 73 262 0.0 3.0 0.00 0.00 0.00 32 1013.5
20260508222538 73 221 0.0 3.0 0.00 0.00 0.00 30 1013.4
20260508222038 74 0 0.0 3.0 0.00 0.00 0.00 30 1013.5
20260508221547 74 0 0.0 2.0 0.00 0.00 0.00 31 1013.6
20260508221039 74 0 0.0 4.0 0.00 0.00 0.00 30 1013.5
20260508220539 74 229 0.0 4.0 0.00 0.00 0.00 30 1013.8
20260508220052 74 0 0.0 3.0 0.00 0.00 0.00 31 1013.6
20260508215539 74 0 0.0 3.0 0.00 0.00 0.00 31 1013.6
20260508215038 74 0 0.0 2.0 0.00 0.00 0.00 31 1013.7
20260508214547 74 302 0.0 2.0 0.00 0.00 0.00 28 1013.7
20260508214039 75 0 0.0 4.0 0.00 0.00 0.00 30 1013.7
20260508213538 75 0 0.0 4.0 0.00 0.00 0.00 31 1013.6
20260508213056 75 144 1.0 3.0 0.00 0.00 0.00 29 1013.6
20260508212539 75 304 1.0 3.0 0.00 0.00 0.00 28 1013.8
20260508212040 75 202 0.0 8.0 0.00 0.00 0.00 30 1013.8
20260508211556 75 0 2.0 8.0 0.00 0.00 0.00 30 1013.7
20260508211038 75 0 0.0 3.0 0.00 0.00 0.00 31 1013.6
20260508210539 74 0 0.0 4.0 0.00 0.00 0.00 30 1013.6
20260508210051 74 299 0.0 4.0 0.00 0.00 0.00 29 1013.6
20260508205538 74 0 0.0 2.0 0.00 0.00 0.00 29 1013.5
20260508205038 74 0 0.0 3.0 0.00 0.00 0.00 26 1013.7
20260508204550 74 0 0.0 3.0 0.00 0.00 0.00 27 1013.7
20260508204040 74 0 0.0 3.0 0.00 0.00 0.00 27 1013.8
20260508203538 73 280 0.0 3.0 0.00 0.00 0.00 32 1013.8
20260508203049 73 188 1.0 8.0 0.00 0.00 0.00 29 1013.8
20260508202540 73 18 1.0 8.0 0.00 0.00 0.00 29 1013.8
20260508202038 73 157 3.0 8.0 0.00 0.00 0.00 30 1013.8
20260508201548 73 0 1.0 4.0 0.00 0.00 0.00 31 1013.9
20260508201038 73 222 0.0 4.0 0.00 0.00 0.00 32 1014.0
20260508200539 73 128 1.0 4.0 0.00 0.00 0.00 29 1014.1
20260508200049 73 0 1.0 5.0 0.00 0.00 0.00 28 1014.3
20260508195538 73 143 0.0 5.0 0.00 0.00 0.00 28 1014.3
20260508195039 73 0 1.0 7.0 0.00 0.00 0.00 25 1014.2
20260508194609 73 0 0.0 7.0 0.00 0.00 0.00 28 1014.5
20260508194040 73 0 1.0 6.0 0.00 0.00 0.00 25 1014.6
20260508193539 73 0 0.0 6.0 0.00 0.00 0.00 29 1014.8
20260508193117 73 360 2.0 7.0 0.00 0.00 0.00 26 1014.9
20260508192538 73 0 1.0 7.0 0.00 0.00 0.00 32 1015.1
20260508192040 72 267 1.0 6.0 0.00 0.00 0.00 29 1015.3
20260508191552 72 350 0.0 6.0 0.00 0.00 0.00 28 1015.5
20260508191039 72 184 1.0 4.0 0.00 0.00 0.00 30 1015.6
20260508190540 71 102 0.0 8.0 0.00 0.00 0.00 30 1015.7
20260508185540 69 187 1.0 4.0 0.00 0.00 0.00 30 1015.7
20260508185039 69 129 0.0 10.0 0.00 0.00 0.00 35 1015.7
20260508184549 68 5 3.0 11.0 0.00 0.00 0.00 29 1015.6
20260508184038 70 153 4.0 11.0 0.00 0.00 0.00 27 1015.7
20260508183538 71 171 3.0 10.0 0.00 0.00 0.00 31 1015.9
20260508183051 71 330 3.0 10.0 0.00 0.00 0.00 32 1016.1
20260508182539 72 0 2.0 7.0 0.00 0.00 0.00 31 1015.9
20260508182038 72 167 1.0 4.0 0.00 0.00 0.00 31 1016.1
20260508181554 71 0 0.0 4.0 0.00 0.00 0.00 35 1016.1
20260508181039 71 0 1.0 9.0 0.00 0.00 0.00 33 1016.2
20260508180541 70 186 3.0 9.0 0.00 0.00 0.00 35 1016.3
20260508180049 69 192 2.0 5.0 0.00 0.00 0.00 31 1016.3
20260508175538 68 192 2.0 8.0 0.00 0.00 0.00 31 1016.1
20260508175038 68 294 1.0 8.0 0.00 0.00 0.00 33 1016.2
20260508174551 68 107 2.0 8.0 0.00 0.00 0.00 31 1016.2
20260508174039 68 5 1.0 4.0 0.00 0.00 0.00 34 1016.4
20260508173539 67 319 1.0 6.0 0.00 0.00 0.00 36 1016.5
20260508173047 67 0 1.0 6.0 0.00 0.00 0.00 36 1016.7
20260508172541 67 175 2.0 6.0 0.00 0.00 0.00 32 1016.7
20260508172039 67 0 1.0 7.0 0.00 0.00 0.00 31 1016.7
20260508171551 67 302 2.0 7.0 0.00 0.00 0.00 30 1016.8
20260508171038 67 321 3.0 6.0 0.00 0.00 0.00 29 1017.0
20260508170539 67 340 3.0 6.0 0.00 0.00 0.00 28 1016.9
20260508170057 67 313 1.0 4.0 0.00 0.00 0.00 31 1017.1
20260508165538 66 337 1.0 5.0 0.00 0.00 0.00 30 1017.2
20260508165038 66 286 1.0 5.0 0.00 0.00 0.00 31 1017.2
20260508164548 65 165 1.0 8.0 0.00 0.00 0.00 35 1017.4
20260508164039 64 186 2.0 8.0 0.00 0.00 0.00 39 1017.4
20260508163540 64 146 3.0 7.0 0.00 0.00 0.00 36 1017.5
20260508163059 64 331 2.0 5.0 0.00 0.00 0.00 36 1017.7
20260508162551 64 325 2.0 8.0 0.00 0.00 0.00 35 1017.9
20260508162040 64 0 2.0 10.0 0.00 0.00 0.00 37 1017.9
20260508161555 63 166 5.0 10.0 0.00 0.00 0.00 39 1018.0
20260508161038 63 171 4.0 10.0 0.00 0.00 0.00 42 1018.1
20260508160540 63 207 3.0 10.0 0.00 0.00 0.00 42 1018.0
20260508160051 63 136 1.0 6.0 0.00 0.00 0.00 40 1018.1
20260508155539 62 340 2.0 10.0 0.00 0.00 0.00 38 1018.1
20260508155039 62 119 5.0 10.0 0.00 0.00 0.00 40 1018.2
20260508154553 63 159 2.0 5.0 0.00 0.00 0.00 43 1018.2
20260508154038 62 0 1.0 6.0 0.00 0.00 0.00 41 1018.3
20260508153539 62 105 1.0 6.0 0.00 0.00 0.00 40 1018.4
20260508153102 62 21 2.0 6.0 0.00 0.00 0.00 40 1018.4
20260508152538 63 58 1.0 5.0 0.00 0.00 0.00 39 1018.4
20260508152040 63 5 2.0 8.0 0.00 0.00 0.00 38 1018.5
20260508151557 62 340 2.0 8.0 0.00 0.00 0.00 41 1018.7
20260508151039 62 165 3.0 9.0 0.00 0.00 0.00 44 1018.6
20260508150539 61 172 5.0 9.0 0.00 0.00 0.00 47 1018.5
20260508150049 62 144 3.0 9.0 0.00 0.00 0.00 47 1018.5
20260508145538 62 153 2.0 7.0 0.00 0.01 0.00 46 1018.6
20260508145039 61 151 1.0 7.0 0.00 0.01 0.00 47 1018.5
20260508144549 61 134 4.0 7.0 0.00 0.01 0.00 45 1018.6
20260508144039 61 348 1.0 7.0 0.00 0.01 0.00 48 1018.4
20260508143539 60 0 1.0 7.0 0.00 0.01 0.00 47 1018.5
20260508143111 60 157 3.0 8.0 0.00 0.01 0.00 46 1018.5
20260508142539 59 0 2.0 9.0 0.00 0.01 0.00 54 1018.4
20260508142039 59 142 5.0 9.0 0.00 0.01 0.00 52 1018.6
20260508141557 59 132 6.0 9.0 0.00 0.01 0.00 51 1018.7
20260508141039 60 124 2.0 6.0 0.00 0.01 0.00 56 1018.6
20260508140539 60 154 2.0 6.0 0.00 0.01 0.00 54 1018.7
20260508135539 59 147 2.0 5.0 0.00 0.01 0.00 60 1018.6
20260508135038 59 167 1.0 5.0 0.00 0.01 0.00 59 1018.7
20260508134551 58 82 2.0 6.0 0.00 0.01 0.00 61 1018.6
20260508134039 58 151 3.0 6.0 0.00 0.01 0.00 63 1018.6
20260508133538 57 169 2.0 5.0 0.00 0.01 0.00 65 1018.5
20260508133049 57 155 2.0 5.0 0.00 0.01 0.00 66 1018.6
20260508132539 56 54 1.0 4.0 0.00 0.01 0.00 65 1018.5
20260508132039 56 105 1.0 5.0 0.00 0.01 0.00 64 1018.5
20260508131549 56 56 2.0 5.0 0.00 0.01 0.00 65 1018.4
20260508131039 56 118 2.0 5.0 0.00 0.01 0.00 66 1018.4
20260508130540 55 134 1.0 4.0 0.00 0.01 0.00 65 1018.4
20260508130053 55 127 0.0 5.0 0.00 0.01 0.00 65 1018.4
20260508125538 54 114 2.0 6.0 0.00 0.02 0.00 66 1018.3
20260508125038 54 0 1.0 6.0 0.00 0.02 0.00 64 1018.2
20260508124551 54 72 2.0 6.0 0.00 0.02 0.00 64 1018.3
20260508124038 54 333 1.0 4.0 0.00 0.02 0.00 63 1018.4
20260508123538 53 109 1.0 3.0 0.00 0.02 0.00 63 1018.4
20260508123048 53 43 1.0 3.0 0.00 0.02 0.00 65 1018.3
20260508122538 52 0 0.0 2.0 0.00 0.02 0.00 70 1018.3
20260508122040 52 0 0.0 1.0 0.00 0.02 0.00 72 1018.3
20260508121547 51 0 0.0 2.0 0.00 0.02 0.00 73 1018.3
20260508121037 51 0 0.0 2.0 0.00 0.02 0.00 75 1018.2
20260508120539 50 0 0.0 1.0 0.00 0.02 0.00 76 1018.2
20260508120103 49 0 0.0 1.0 0.00 0.02 0.00 76 1018.1
20260508115541 48 0 0.0 1.0 0.00 0.02 0.00 77 1018.1
20260508115042 48 0 0.0 1.0 0.00 0.02 0.00 77 1018.1
20260508114600 47 0 0.0 1.0 0.00 0.02 0.00 78 1018.0
20260508114039 47 0 0.0 1.0 0.00 0.02 0.00 78 1017.9
20260508113539 47 0 0.0 0.0 0.00 0.02 0.00 77 1017.9
20260508113053 46 0 0.0 2.0 0.00 0.02 0.00 77 1017.8
20260508112543 46 0 0.0 2.0 0.00 0.02 0.00 76 1017.7
20260508112038 46 346 0.0 5.0 0.00 0.02 0.00 76 1017.6
20260508111549 46 346 2.0 5.0 0.00 0.02 0.00 75 1017.6
20260508111039 45 345 2.0 4.0 0.00 0.02 0.00 75 1017.5
20260508110538 45 333 2.0 4.0 0.00 0.02 0.00 75 1017.4
20260508110056 45 340 2.0 4.0 0.00 0.02 0.00 75 1017.3
20260508105540 45 342 2.0 4.0 0.00 0.02 0.00 75 1017.2
20260508105040 45 350 3.0 4.0 0.00 0.02 0.00 75 1017.1
20260508104547 45 324 2.0 4.0 0.00 0.02 0.00 75 1017.2
20260508104040 45 336 2.0 3.0 0.00 0.02 0.00 75 1017.0
20260508103538 45 334 1.0 3.0 0.00 0.02 0.00 74 1017.0
20260508103051 45 331 1.0 3.0 0.00 0.02 0.00 74 1016.8
20260508102540 45 346 2.0 3.0 0.00 0.02 0.00 74 1016.9
20260508102039 46 351 1.0 3.0 0.00 0.02 0.00 73 1016.7
20260508101546 46 336 1.0 3.0 0.00 0.02 0.00 73 1016.7
20260508101039 46 360 1.0 4.0 0.00 0.02 0.00 73 1016.7
20260508100540 46 347 1.0 4.0 0.00 0.02 0.00 73 1016.7
20260508095539 46 317 3.0 6.0 0.00 0.03 0.00 72 1016.6
20260508095039 46 325 4.0 6.0 0.00 0.03 0.00 73 1016.6
20260508094548 46 346 4.0 6.0 0.00 0.03 0.00 74 1016.5
20260508094038 46 321 3.0 5.0 0.00 0.03 0.00 74 1016.6
20260508093538 46 319 4.0 5.0 0.00 0.03 0.00 73 1016.6
20260508093046 46 307 4.0 5.0 0.00 0.03 0.00 73 1016.5
20260508092538 46 323 3.0 5.0 0.00 0.03 0.00 73 1016.6
20260508092038 46 312 3.0 4.0 0.00 0.03 0.00 72 1016.6
20260508091608 46 313 1.0 4.0 0.00 0.03 0.00 72 1016.5
20260508091038 46 316 2.0 5.0 0.00 0.03 0.00 72 1016.4
20260508090541 46 318 2.0 5.0 0.00 0.03 0.00 72 1016.5
20260508090052 46 309 3.0 4.0 0.00 0.03 0.00 71 1016.5
20260508085539 47 323 2.0 4.0 0.00 0.03 0.00 71 1016.6
20260508085038 47 323 2.0 4.0 0.00 0.03 0.00 71 1016.7
20260508084551 47 321 2.0 5.0 0.00 0.03 0.00 70 1016.6
20260508084041 47 320 3.0 5.0 0.00 0.03 0.00 70 1016.6
20260508083539 47 325 3.0 5.0 0.00 0.03 0.00 70 1016.6
20260508083047 47 330 2.0 5.0 0.00 0.03 0.00 70 1016.5
20260508082541 47 340 2.0 5.0 0.00 0.03 0.00 70 1016.5
20260508082040 47 341 2.0 5.0 0.00 0.03 0.00 70 1016.5
20260508081609 47 325 2.0 5.0 0.00 0.03 0.00 70 1016.6
20260508081039 47 319 2.0 5.0 0.00 0.03 0.00 70 1016.5
20260508080539 47 332 3.0 5.0 0.00 0.03 0.00 71 1016.5
20260508080048 47 336 2.0 4.0 0.00 0.03 0.00 71 1016.6
20260508075538 47 355 1.0 3.0 0.00 0.04 0.00 71 1016.6
20260508075039 47 348 1.0 3.0 0.00 0.04 0.00 70 1016.7
20260508074549 47 332 2.0 4.0 0.00 0.04 0.00 70 1016.6
20260508074038 47 327 1.0 4.0 0.00 0.04 0.00 70 1016.7
20260508073541 47 324 2.0 4.0 0.00 0.04 0.00 70 1016.7
20260508073051 47 336 2.0 4.0 0.00 0.04 0.00 70 1016.7
20260508072538 48 322 2.0 4.0 0.00 0.04 0.00 70 1016.7
20260508072040 48 333 2.0 4.0 0.00 0.04 0.00 69 1016.7
20260508071552 48 327 2.0 4.0 0.00 0.04 0.00 69 1016.8
20260508071042 48 325 1.0 3.0 0.00 0.04 0.00 68 1016.8
20260508070542 48 327 1.0 3.0 0.00 0.04 0.00 67 1016.6
20260508070050 48 355 1.0 3.0 0.00 0.04 0.00 67 1016.7
20260508065538 48 349 1.0 4.0 0.00 0.04 0.00 67 1016.7
20260508065040 49 325 2.0 4.0 0.00 0.04 0.00 66 1016.7
20260508064548 49 348 2.0 4.0 0.00 0.04 0.00 66 1016.8
20260508064038 49 346 2.0 4.0 0.00 0.04 0.00 66 1016.7
20260508063539 49 327 2.0 5.0 0.00 0.04 0.00 65 1016.7
20260508063056 49 331 2.0 5.0 0.00 0.04 0.00 65 1016.6
20260508062543 49 337 3.0 5.0 0.00 0.04 0.00 65 1016.7
20260508062040 49 342 3.0 5.0 0.00 0.04 0.00 65 1016.6
20260508061549 49 343 3.0 6.0 0.00 0.04 0.00 64 1016.7
20260508061039 50 16 3.0 6.0 0.00 0.04 0.00 64 1016.7
20260508060538 50 334 2.0 6.0 0.00 0.04 0.00 64 1016.8
20260508060106 50 340 3.0 6.0 0.00 0.04 0.00 64 1016.7
20260508055538 50 350 3.0 6.0 0.00 0.08 0.00 64 1016.8
20260508055038 50 352 3.0 6.0 0.00 0.08 0.00 64 1016.7
20260508054633 50 322 3.0 6.0 0.00 0.08 0.00 63 1016.7
20260508054039 50 318 3.0 6.0 0.00 0.08 0.00 63 1016.7
20260508053538 50 345 3.0 8.0 0.00 0.08 0.00 63 1016.7
20260508053053 50 333 4.0 8.0 0.00 0.08 0.00 63 1016.7
20260508052540 51 360 3.0 8.0 0.00 0.08 0.00 63 1016.8
20260508052038 51 332 3.0 8.0 0.00 0.08 0.00 63 1016.9
20260508051549 51 355 4.0 8.0 0.00 0.08 0.00 64 1016.9
20260508051040 51 9 3.0 8.0 0.00 0.08 0.00 64 1017.1
20260508050539 51 352 4.0 9.0 0.00 0.08 0.00 63 1017.1
20260508050050 50 346 4.0 9.0 0.00 0.08 0.00 64 1016.8
20260508045538 50 5 3.0 8.0 0.00 0.10 0.00 64 1016.8
20260508045039 50 355 3.0 8.0 0.00 0.10 0.00 64 1016.7
20260508044551 50 337 3.0 8.0 0.00 0.10 0.00 65 1016.6
20260508044041 50 345 2.0 6.0 0.00 0.10 0.00 65 1016.6
20260508043538 50 346 2.0 6.0 0.00 0.10 0.00 66 1016.6
20260508043056 51 323 2.0 6.0 0.00 0.10 0.00 66 1016.5
20260508042538 51 323 2.0 5.0 0.00 0.10 0.00 67 1016.4
20260508042038 51 323 2.0 5.0 0.00 0.10 0.00 67 1016.5
20260508041554 51 327 2.0 4.0 0.00 0.10 0.00 66 1016.5
20260508041039 51 315 2.0 5.0 0.00 0.10 0.00 66 1016.4
20260508040539 51 322 2.0 5.0 0.00 0.10 0.00 66 1016.3
20260508040045 51 298 2.0 5.0 0.00 0.10 0.00 66 1016.4
20260508035539 51 320 2.0 5.0 0.00 0.11 0.10 66 1016.2
20260508035039 51 324 2.0 4.0 0.00 0.11 0.10 65 1016.2
20260508034552 51 312 1.0 5.0 0.00 0.11 0.10 66 1016.1
20260508034038 52 315 2.0 5.0 0.00 0.11 0.10 66 1016.1
20260508033538 52 320 2.0 5.0 0.00 0.11 0.10 67 1016.1
20260508033047 52 306 2.0 5.0 0.00 0.11 0.10 66 1016.1
20260508032542 52 352 1.0 4.0 0.00 0.11 0.10 67 1016.1
20260508032038 52 312 2.0 4.0 0.00 0.11 0.10 66 1016.2
20260508031552 53 309 2.0 4.0 0.00 0.11 0.10 66 1016.2
20260508031039 53 294 2.0 4.0 0.00 0.11 0.10 64 1016.1
20260508030538 53 333 1.0 4.0 0.00 0.11 0.10 65 1016.0
20260508030047 53 328 2.0 4.0 0.00 0.11 0.10 65 1016.0
20260508025541 53 347 2.0 4.0 0.00 0.14 0.10 65 1016.0
20260508025038 54 324 2.0 4.0 0.00 0.14 0.10 64 1016.0
20260508024554 54 311 1.0 4.0 0.00 0.14 0.10 63 1016.2
20260508024040 54 321 2.0 4.0 0.00 0.14 0.10 63 1016.1
20260508023540 54 305 1.0 5.0 0.00 0.14 0.10 62 1016.0
20260508023050 54 0 1.0 5.0 0.00 0.14 0.10 62 1015.9
20260508022542 55 331 1.0 4.0 0.00 0.14 0.10 61 1015.9
20260508022039 55 331 2.0 4.0 0.00 0.14 0.10 61 1016.1
20260508021547 55 0 1.0 5.0 0.00 0.14 0.10 61 1016.1
20260508021041 55 302 1.0 5.0 0.00 0.14 0.10 61 1016.0
20260508020538 55 342 2.0 5.0 0.00 0.14 0.10 61 1015.9
20260508020058 56 0 2.0 5.0 0.00 0.14 0.10 61 1015.6
20260508015538 56 307 2.0 5.0 0.00 0.15 0.10 61 1015.5
20260508015038 56 325 1.0 5.0 0.00 0.15 0.10 62 1015.5
20260508014549 56 314 2.0 5.0 0.00 0.15 0.10 62 1015.3
20260508014040 56 325 2.0 5.0 0.00 0.15 0.10 62 1015.2
20260508013538 56 313 2.0 4.0 0.00 0.15 0.10 62 1015.1
20260508013049 57 330 1.0 4.0 0.00 0.15 0.10 61 1015.1
20260508012539 57 322 2.0 5.0 0.00 0.15 0.10 61 1015.0
20260508012039 57 313 1.0 5.0 0.00 0.15 0.10 61 1015.0
20260508011551 57 5 2.0 5.0 0.00 0.15 0.10 60 1015.0
20260508011039 57 335 2.0 4.0 0.00 0.15 0.10 59 1014.7
20260508010539 58 335 1.0 4.0 0.00 0.15 0.10 59 1014.7
20260508010050 58 325 2.0 4.0 0.00 0.15 0.10 58 1014.6
20260508005542 58 325 1.0 5.0 0.00 0.17 0.10 58 1014.6
20260508005042 58 0 2.0 8.0 0.00 0.17 0.10 58 1014.6
20260508004548 58 334 2.0 8.0 0.00 0.17 0.10 57 1014.6
20260508004038 58 350 3.0 8.0 0.00 0.17 0.10 58 1014.3
20260508003539 59 350 3.0 6.0 0.00 0.17 0.10 59 1014.4
20260508003043 59 344 3.0 6.0 0.00 0.17 0.10 61 1014.2
20260508002539 59 341 2.0 4.0 0.00 0.17 0.10 64 1014.2
20260508002039 60 320 1.0 3.0 0.00 0.17 0.10 64 1014.2
20260508001547 60 0 0.0 3.0 0.00 0.17 0.10 63 1014.1
20260508001039 60 0 0.0 2.0 0.00 0.17 0.10 63 1014.0
20260508000540 60 315 0.0 2.0 0.00 0.17 0.10 63 1013.9
20260508000049 61 0 0.0 0.0 0.00 0.17 0.10 62 1014.0
20260507235539 61 0 0.0 0.0 0.00 0.26 0.10 63 1013.9
20260507235038 61 0 0.0 0.0 0.00 0.26 0.10 62 1013.8
20260507234546 62 0 0.0 0.0 0.00 0.26 0.10 61 1013.9
20260507234042 62 0 0.0 0.0 0.00 0.26 0.10 60 1014.1
20260507233538 62 0 0.0 0.0 0.00 0.26 0.10 60 1014.0
20260507233046 63 0 0.0 0.0 0.00 0.26 0.10 60 1013.9
20260507232540 63 0 0.0 2.0 0.00 0.26 0.10 59 1014.0
20260507232039 63 0 0.0 2.0 0.00 0.26 0.10 59 1014.0
20260507231548 63 0 0.0 2.0 0.00 0.26 0.10 58 1013.9
20260507231042 63 0 0.0 0.0 0.00 0.26 0.10 59 1013.9
20260507230541 63 0 0.0 1.0 0.00 0.26 0.10 58 1014.1
20260507230047 63 0 0.0 1.0 0.00 0.26 0.10 59 1014.0
20260507225539 63 0 0.0 0.0 0.00 0.32 0.10 57 1014.0